Wetbulb
75.34 76.70 76.63 76.22 76.32 76.69 76.06 74.59 72.21 74.14 75.39 73.63 76.66 76.00 75.16 72.48 74.12 74.75 74.16 76.51 75.99 76.16 76.18 76.48 76.94 76.39 76.38 76.81 76.80 76.15 75.96 75.92 75.93 75.51 75.64 75.66 75.54 75.34 75.41 75.41 75.50 75.29 75.39
76.75 75.45 76.68 74.50 75.58 73.49 73.28 74.79 75.66 72.55 69.49 72.08 72.90 76.01 75.90 76.58 76.46 76.63 74.75 74.69 76.65 76.36 76.31 76.16 76.77 77.30 77.23 76.86 76.84 76.93 76.54 76.30 76.14 76.00 75.74 75.92 75.67 75.53 75.41 75.10 74.99 75.07 75.41
77.87 78.43 76.15 74.84 75.40 74.16 74.35 74.42 73.11 74.19 72.01 72.93 74.13 72.33 73.94 77.12 77.10 77.03 75.89 75.21 75.54 77.05 77.19 77.28 77.65 77.72 77.78 77.79 77.30 77.00 76.79 76.84 76.65 76.50 76.48 76.40 75.85 75.70 75.29 75.24 75.11 75.26 74.97
78.00 78.04 75.64 75.95 79.61 78.86 76.74 73.31 73.10 72.29 73.70 72.39 72.69 71.80 71.04 76.41 77.13 77.40 75.78 74.90 75.72 75.43 76.98 77.55 77.82 77.98 77.91 78.20 78.14 77.57 77.37 77.19 77.00 76.93 76.98 76.76 76.38 75.82 75.47 75.68 75.62 74.94 75.33
77.24 77.92 77.09 77.61 74.10 73.26 72.53 69.99 70.07 71.61 73.80 71.31 70.26 71.19 73.70 74.87 73.62 75.21 76.62 75.44 76.56 75.97 75.09 76.92 77.67 77.77 77.95 77.22 78.46 78.30 78.25 77.93 77.62 77.34 77.02 76.84 76.41 76.23 76.16 75.88 75.88 75.71 75.69
77.09 77.92 77.41 75.64 78.80 75.81 75.72 75.14 76.28 76.57 75.86 74.35 73.56 73.38 73.70 72.45 75.55 73.94 74.59 72.21 75.03 76.54 75.85 75.18 76.76 76.47 77.79 77.98 77.85 78.10 78.13 78.10 77.97 77.60 77.19 76.72 76.57 76.36 76.16 76.14 75.97 75.89 75.97
77.42 79.55 78.14 76.88 78.55 76.62 74.63 76.65 77.04 75.55 74.69 76.19 71.49 71.82 70.90 69.62 72.25 73.46 73.91 73.63 74.60 75.12 76.22 75.47 75.41 75.02 75.50 77.77 77.75 78.12 78.62 78.62 78.29 77.77 77.47 77.22 76.72 76.49 76.12 75.99 75.97 75.97 75.87
78.25 77.55 78.93 73.66 77.53 76.92 74.84 76.90 78.19 76.43 75.21 73.20 73.74 69.48 66.83 65.30 69.58 72.53 73.11 74.69 73.75 72.67 70.14 77.22 77.68 75.83 74.95 75.10 76.82 77.97 78.16 78.04 78.34 78.10 77.79 77.40 76.85 76.62 76.04 75.79 75.86 75.74 75.49
76.80 78.33 79.24 77.80 78.26 77.89 72.01 73.49 76.74 78.13 74.10 74.25 75.77 73.54 67.84 65.50 68.62 70.72 71.88 73.45 75.30 69.88 68.84 73.64 77.00 77.56 76.97 76.08 76.17 76.86 77.29 76.81 77.77 78.08 77.90 77.53 76.82 76.44 76.27 76.11 75.91 75.63 75.41
77.09 76.75 77.72 79.15 79.09 78.06 77.96 77.26 76.65 76.57 75.68 72.57 74.49 72.14 76.13 74.12 69.29 68.24 69.60 70.70 72.32 72.79 72.72 75.61 73.72 77.07 77.29 76.91 77.66 77.17 76.74 76.32 77.39 77.87 77.95 77.67 77.22 76.75 76.39 76.12 75.84 75.83 75.71
76.95 76.53 77.70 78.30 79.01 78.27 76.71 77.01 73.81 73.10 76.02 75.15 74.50 71.70 73.45 73.29 75.35 71.41 66.42 67.87 69.31 72.19 74.68 74.07 74.37 76.21 76.77 77.09 75.93 75.91 76.11 75.84 76.06 77.20 77.67 77.82 77.50 76.82 75.77 76.06 76.04 76.04 75.76
75.47 76.28 76.41 77.61 78.56 77.87 77.82 76.97 75.22 73.94 76.35 76.44 76.25 74.07 72.86 70.86 70.12 69.00 69.07 68.97 68.34 70.43 71.51 72.38 72.10 74.72 76.68 77.09 76.93 75.86 76.14 75.34 74.99 75.31 75.87 76.82 77.60 77.52 76.54 75.94 75.65 75.60 75.53
73.99 73.68 75.89 76.80 76.32 77.07 77.89 78.82 75.43 76.29 76.95 76.30 77.20 75.50 74.87 72.30 72.60 72.44 71.00 69.55 68.97 70.26 71.24 73.26 73.10 75.42 74.89 74.01 75.09 76.35 75.74 74.33 73.53 73.11 73.48 74.31 75.50 76.77 77.12 77.12 76.68 76.31 76.16
74.42 75.48 75.17 75.58 76.71 77.39 77.93 77.46 77.73 77.56 76.48 76.85 76.76 76.81 75.75 74.68 73.51 72.82 72.51 71.48 67.98 69.47 70.46 72.89 73.28 73.15 75.64 76.02 75.64 76.26 73.42 71.94 72.25 72.04 71.95 72.37 73.12 73.97 75.07 75.73 75.99 76.09 76.19
75.25 74.89 74.09 74.63 76.02 77.15 77.27 77.01 76.32 77.04 76.92 74.55 76.85 77.11 76.74 75.17 74.56 73.65 73.97 71.78 71.61 67.33 68.37 69.53 68.17 73.40 72.90 71.48 74.41 75.33 77.00 71.41 71.62 71.69 70.78 70.18 71.15 72.20 72.87 73.36 73.96 74.21 74.53
76.76 74.22 75.08 74.90 75.26 75.90 76.93 76.81 75.19 76.35 75.66 76.66 75.30 76.02 76.92 76.06 75.02 73.92 73.74 74.14 72.04 70.86 68.07 72.77 70.36 74.28 73.17 72.28 72.73 75.69 76.66 73.47 71.48 70.69 69.97 69.49 69.63 70.24 71.31 72.11 72.02 72.27 72.44
76.32 77.12 75.70 75.17 75.13 75.65 76.44 76.66 76.08 76.35 77.00 76.09 76.43 76.02 75.86 75.79 74.07 74.84 75.01 74.30 74.47 72.51 70.68 72.36 73.67 74.24 74.64 72.44 76.14 76.19 77.51 76.80 74.86 69.93 69.68 69.59 68.91 69.00 69.67 70.26 70.37 70.55 70.82
76.72 75.81 76.34 75.98 76.15 76.10 76.50 76.67 75.39 74.31 75.33 74.88 74.95 74.94 74.27 75.53 75.06 75.91 75.24 74.70 73.64 74.15 72.39 71.74 72.92 72.85 73.55 75.20 76.41 76.91 76.14 75.33 75.38 72.61 69.57 69.24 68.41 67.98 67.76 67.87 67.60 67.60 67.69
75.67 75.91 76.10 75.04 75.54 76.31 76.50 75.73 75.58 74.73 75.15 76.29 76.17 75.29 74.44 74.76 75.64 75.15 75.14 73.93 74.01 74.43 74.40 72.45 70.90 72.57 72.83 74.29 73.63 76.66 76.09 76.17 76.84 73.99 69.33 68.74 68.29 67.58 66.89 65.95 65.36 64.72 63.65
74.89 74.09 75.48 75.52 75.97 76.54 75.83 76.04 75.94 75.63 76.13 75.92 76.26 75.73 76.26 74.74 75.13 75.16 74.98 75.23 74.29 73.72 73.37 72.52 71.93 71.80 72.87 73.57 73.45 70.77 70.42 69.37 72.86 74.72 73.52 71.03 69.63 68.58 67.48 65.41 65.16 64.67 61.98
76.75 76.16 74.50 75.29 75.79 75.70 75.35 75.58 75.64 75.46 75.64 75.52 75.25 76.75 75.90 75.30 73.64 73.99 75.15 75.06 74.94 73.62 73.18 73.03 70.55 70.01 70.53 71.67 70.14 71.57 70.51 71.20 72.17 73.44 71.10 72.13 72.87 72.38 70.73 67.06 68.86 67.15 63.97
76.76 76.88 76.44 76.22 75.79 75.30 70.61 69.55 73.66 75.00 74.78 75.07 75.08 76.66 76.57 74.49 73.59 70.92 70.05 70.75 71.73 74.09 72.79 72.06 71.33 70.99 71.54 71.95 72.11 72.21 71.52 69.74 68.25 74.37 70.84 70.68 73.21 72.69 73.79 72.63 69.29 67.29 64.09
77.43 76.77 76.36 76.13 75.64 75.69 69.49 67.44 69.09 74.16 74.93 74.61 75.46 75.97 74.61 74.86 73.99 76.47 69.85 70.73 68.84 68.41 69.52 72.56 70.58 70.09 69.54 70.76 68.70 68.68 69.11 69.09 69.70 71.90 72.38 70.21 73.07 71.79 71.95 69.04 66.20 64.36 62.84
77.09 76.94 76.66 76.74 76.36 76.43 68.58 66.87 67.36 73.63 74.84 74.91 75.09 75.83 75.97 76.01 76.13 74.78 76.03 75.76 73.89 73.68 70.56 69.47 69.94 70.44 71.02 67.33 65.67 64.40 63.78 63.74 65.13 67.28 70.10 66.40 69.01 70.41 70.53 65.31 62.33 62.64 61.39
77.31 77.23 77.25 76.82 76.41 76.29 65.50 64.81 66.96 73.89 73.84 74.27 75.05 75.42 75.05 74.85 67.13 66.38 73.35 72.43 73.05 71.56 68.94 66.85 66.87 65.61 62.40 61.50 62.01 64.06 62.66 60.59 58.76 60.89 64.81 65.17 64.96 66.28 66.80 64.93 63.83 60.44 59.26
77.18 77.48 77.28 77.45 73.87 76.67 67.04 63.09 65.83 73.86 73.27 73.44 74.57 74.94 69.70 72.27 62.04 63.07 71.80 71.88 69.90 70.23 70.86 67.98 68.47 65.00 62.66 64.55 61.02 63.82 64.48 62.09 62.24 62.25 66.93 64.80 67.03 65.17 62.30 60.89 59.94 61.63 60.04
MSLP
1015.84 1015.57 1015.78 1015.85 1015.97 1016.50 1016.35 1017.31 1017.55 1016.81 1017.58 1018.08 1016.59 1015.98 1016.32 1016.71 1016.60 1016.91 1017.60 1017.65 1017.66 1017.88 1018.13 1018.39 1018.66 1018.96 1019.26 1019.55 1019.89 1020.20 1020.49 1020.68 1020.84 1021.03 1021.26 1021.42 1021.57 1021.70 1021.90 1022.11 1022.25 1022.44 1022.56
1015.80 1015.86 1015.91 1016.08 1015.97 1016.85 1018.02 1017.34 1016.54 1016.91 1018.39 1017.64 1018.16 1016.91 1015.82 1015.65 1016.02 1016.39 1016.64 1017.11 1017.45 1017.53 1017.93 1018.26 1018.42 1018.66 1018.96 1019.26 1019.59 1019.87 1020.15 1020.37 1020.53 1020.72 1020.92 1021.09 1021.26 1021.45 1021.65 1021.84 1022.03 1022.12 1022.20
1015.89 1016.02 1015.95 1015.95 1015.72 1016.73 1016.64 1016.29 1016.02 1016.65 1017.62 1019.14 1017.47 1017.98 1017.67 1015.96 1016.47 1016.28 1016.10 1016.60 1017.11 1017.46 1017.52 1017.87 1018.21 1018.46 1018.75 1019.04 1019.34 1019.59 1019.86 1020.07 1020.27 1020.44 1020.60 1020.81 1021.02 1021.18 1021.35 1021.54 1021.69 1021.82 1021.96
1016.07 1015.96 1016.19 1015.74 1015.35 1015.26 1015.97 1017.11 1016.74 1016.59 1017.35 1017.67 1017.41 1017.45 1016.97 1015.61 1015.80 1016.13 1016.36 1016.16 1016.36 1017.25 1017.62 1017.71 1017.95 1018.23 1018.48 1018.74 1019.05 1019.33 1019.59 1019.79 1019.97 1020.15 1020.30 1020.48 1020.67 1020.89 1021.02 1021.18 1021.34 1021.53 1021.68
1015.98 1015.90 1016.09 1016.01 1015.72 1015.89 1016.05 1016.23 1015.93 1015.65 1015.90 1017.06 1016.60 1015.63 1016.28 1015.90 1016.07 1017.35 1016.47 1016.77 1016.24 1016.36 1017.07 1017.50 1017.75 1017.91 1018.07 1018.35 1018.65 1018.93 1019.24 1019.48 1019.67 1019.86 1020.01 1020.20 1020.38 1020.58 1020.77 1021.00 1021.15 1021.26 1021.39
1015.94 1015.77 1016.16 1016.91 1015.78 1016.18 1016.27 1016.19 1016.18 1015.45 1015.38 1015.17 1015.44 1015.61 1016.39 1017.49 1016.33 1017.57 1016.83 1016.88 1016.55 1016.08 1016.78 1017.04 1017.61 1017.82 1017.82 1017.92 1018.19 1018.51 1018.78 1019.05 1019.30 1019.54 1019.74 1019.93 1020.12 1020.29 1020.51 1020.73 1020.95 1021.12 1021.28
1015.94 1015.73 1016.02 1016.26 1015.71 1016.43 1016.73 1016.22 1016.18 1016.32 1015.79 1015.33 1015.77 1015.70 1016.12 1017.02 1018.25 1017.93 1017.08 1016.61 1016.22 1015.65 1015.91 1016.59 1017.15 1017.37 1017.61 1017.59 1017.85 1018.09 1018.38 1018.68 1018.94 1019.19 1019.39 1019.62 1019.87 1020.09 1020.28 1020.50 1020.72 1020.93 1021.12
1015.97 1015.78 1016.04 1016.48 1016.39 1016.54 1016.91 1016.75 1016.38 1016.55 1016.36 1015.92 1015.96 1016.68 1017.64 1018.05 1018.27 1018.09 1018.12 1016.33 1015.54 1016.14 1016.40 1015.87 1016.12 1016.73 1016.83 1017.11 1017.37 1017.65 1017.91 1018.20 1018.59 1018.92 1019.16 1019.40 1019.64 1019.84 1020.07 1020.30 1020.51 1020.71 1020.90
1015.89 1015.80 1015.84 1016.15 1016.44 1016.54 1016.44 1016.63 1016.26 1016.10 1016.24 1015.84 1015.43 1015.80 1017.46 1018.78 1019.26 1017.31 1017.62 1016.14 1015.40 1016.04 1016.01 1016.14 1015.78 1016.01 1016.00 1016.30 1016.86 1017.23 1017.60 1017.91 1018.18 1018.47 1018.81 1019.18 1019.47 1019.69 1019.92 1020.12 1020.29 1020.46 1020.62
1015.86 1015.84 1015.76 1015.72 1015.91 1016.25 1016.41 1016.51 1016.98 1017.02 1016.57 1015.89 1015.47 1015.72 1015.98 1016.66 1017.50 1017.57 1016.65 1016.61 1015.55 1015.62 1015.46 1015.35 1015.21 1015.67 1015.65 1015.79 1016.34 1016.79 1017.24 1017.70 1017.95 1018.17 1018.49 1018.84 1019.12 1019.39 1019.65 1019.92 1020.12 1020.25 1020.38
1015.59 1015.74 1015.71 1015.78 1015.92 1015.97 1015.93 1016.98 1017.25 1017.53 1017.40 1016.87 1015.95 1015.97 1015.65 1015.61 1015.82 1016.22 1016.38 1016.22 1015.27 1014.74 1014.81 1014.62 1014.72 1015.20 1015.50 1015.55 1015.97 1016.42 1016.96 1017.47 1017.77 1017.93 1018.14 1018.45 1018.76 1019.06 1019.34 1019.57 1019.76 1019.96 1020.13
1015.53 1015.43 1015.49 1015.62 1015.72 1015.90 1015.78 1016.95 1017.54 1017.48 1017.45 1016.93 1016.09 1016.05 1015.98 1016.06 1015.77 1015.80 1015.77 1015.51 1015.26 1014.57 1014.42 1014.28 1014.41 1014.78 1015.10 1015.36 1015.77 1016.42 1016.95 1017.30 1017.58 1017.77 1017.90 1018.12 1018.39 1018.67 1018.90 1019.12 1019.36 1019.58 1019.76
1015.21 1015.10 1015.26 1015.44 1015.77 1015.76 1015.51 1015.89 1017.06 1017.52 1017.17 1016.41 1016.13 1016.24 1016.13 1016.09 1015.56 1015.51 1015.60 1015.50 1015.41 1015.01 1014.84 1014.58 1014.84 1014.42 1014.74 1014.78 1015.60 1016.07 1016.65 1016.90 1017.18 1017.49 1017.68 1017.84 1018.07 1018.29 1018.51 1018.71 1018.92 1019.12 1019.33
1014.44 1014.59 1015.08 1014.93 1014.99 1015.38 1015.47 1015.56 1015.78 1016.00 1016.01 1016.05 1016.26 1016.36 1016.33 1016.16 1015.89 1015.57 1015.43 1015.52 1015.49 1015.44 1015.71 1016.02 1015.54 1015.95 1014.91 1014.72 1014.95 1015.34 1015.75 1016.32 1016.67 1016.88 1017.15 1017.38 1017.66 1017.90 1018.11 1018.31 1018.49 1018.71 1018.90
1014.13 1014.41 1014.90 1014.99 1015.20 1015.14 1015.39 1015.69 1015.75 1015.75 1015.93 1016.08 1016.23 1016.25 1016.30 1016.18 1015.93 1015.65 1015.38 1015.08 1015.36 1015.89 1016.22 1016.61 1016.55 1015.57 1015.71 1015.67 1016.41 1015.18 1014.84 1015.49 1015.96 1016.20 1016.41 1016.61 1016.94 1017.26 1017.55 1017.82 1018.05 1018.28 1018.53
1013.74 1013.89 1014.38 1014.78 1014.99 1015.11 1015.23 1015.49 1015.60 1015.57 1015.73 1015.84 1015.98 1016.24 1016.46 1016.36 1016.16 1015.71 1015.54 1015.23 1015.36 1015.66 1015.97 1015.91 1016.46 1015.91 1016.61 1016.32 1016.71 1016.12 1014.85 1014.89 1015.31 1015.37 1015.42 1015.43 1015.76 1016.32 1016.80 1017.20 1017.51 1017.78 1018.03
1013.39 1013.57 1013.85 1014.31 1014.53 1014.70 1014.97 1015.20 1015.30 1015.29 1015.57 1015.68 1015.95 1016.24 1016.48 1016.57 1016.50 1015.91 1015.64 1015.66 1015.62 1015.79 1016.00 1015.60 1015.24 1015.41 1016.53 1016.01 1015.99 1015.33 1014.81 1014.75 1014.76 1014.60 1014.55 1014.56 1014.89 1015.32 1015.86 1016.33 1016.79 1017.19 1017.47
1013.08 1013.34 1013.48 1013.83 1014.22 1014.33 1014.63 1014.86 1015.21 1015.37 1015.38 1015.76 1016.05 1016.23 1016.30 1016.20 1016.37 1016.23 1015.98 1015.81 1015.56 1015.55 1015.83 1015.63 1015.20 1015.34 1015.64 1015.70 1015.30 1015.10 1014.56 1014.13 1014.21 1014.13 1014.21 1014.41 1014.68 1015.00 1015.34 1015.61 1015.92 1016.39 1016.80
1012.73 1013.09 1013.39 1013.72 1014.03 1014.16 1014.41 1014.66 1015.07 1015.36 1015.36 1015.42 1015.59 1015.83 1015.90 1015.87 1015.85 1015.80 1015.90 1015.92 1015.66 1015.50 1015.66 1015.76 1015.45 1014.82 1014.59 1014.55 1014.54 1014.31 1014.39 1013.74 1013.88 1014.03 1014.42 1014.62 1014.19 1014.53 1014.66 1014.92 1015.09 1015.47 1015.96
1012.28 1012.72 1013.02 1013.29 1013.61 1013.90 1014.22 1014.54 1014.74 1015.01 1015.03 1015.07 1015.25 1015.45 1015.37 1015.48 1015.47 1015.53 1015.66 1015.75 1015.75 1015.54 1015.42 1015.33 1015.09 1014.86 1014.49 1014.32 1014.66 1014.95 1015.05 1014.81 1014.75 1014.01 1014.09 1014.17 1013.99 1013.84 1014.30 1014.33 1014.45 1014.68 1015.20
1011.62 1012.21 1012.68 1013.01 1013.32 1013.58 1013.81 1014.11 1014.28 1014.56 1014.73 1014.71 1014.80 1014.93 1015.02 1014.88 1014.77 1014.86 1015.09 1015.25 1015.25 1015.27 1015.18 1015.27 1015.06 1014.75 1014.48 1014.54 1014.93 1014.90 1014.63 1014.43 1014.30 1014.17 1014.25 1014.08 1014.31 1014.29 1014.38 1014.50 1014.06 1014.04 1014.41
1010.90 1011.51 1011.98 1012.40 1012.75 1012.98 1013.16 1013.44 1013.73 1013.90 1014.18 1014.29 1014.30 1014.28 1014.38 1014.36 1014.30 1014.16 1014.18 1014.27 1014.51 1014.79 1014.85 1014.96 1014.78 1014.66 1014.48 1014.70 1014.75 1015.11 1014.81 1014.53 1014.15 1013.55 1013.72 1013.73 1013.49 1013.61 1013.20 1013.10 1012.92 1013.13 1013.83
1010.31 1010.80 1011.25 1011.68 1012.06 1012.47 1012.75 1012.92 1013.17 1013.44 1013.51 1013.69 1013.62 1013.76 1014.02 1013.77 1013.51 1013.60 1014.06 1014.18 1014.28 1014.41 1014.49 1014.42 1014.45 1014.39 1014.42 1014.53 1014.88 1014.88 1014.79 1014.39 1013.99 1013.30 1013.36 1013.20 1013.03 1012.84 1012.68 1012.86 1012.66 1013.07 1013.69
1009.69 1010.04 1010.42 1010.73 1011.01 1011.25 1011.69 1012.13 1012.47 1012.84 1012.92 1013.03 1013.20 1013.40 1013.48 1013.39 1013.32 1013.30 1013.42 1013.55 1013.84 1013.82 1013.93 1014.09 1014.06 1014.01 1014.13 1014.49 1014.80 1014.93 1014.83 1014.38 1013.48 1012.86 1012.81 1012.75 1012.39 1012.41 1012.88 1013.09 1013.38 1013.78 1014.05
1009.27 1009.70 1010.01 1010.35 1010.70 1010.99 1011.19 1011.53 1012.03 1012.35 1012.43 1012.49 1012.66 1012.76 1012.80 1012.76 1012.77 1013.01 1013.33 1013.39 1013.38 1013.34 1013.08 1013.21 1013.13 1013.30 1013.70 1014.04 1014.40 1014.59 1014.32 1014.17 1013.32 1012.51 1011.94 1011.91 1011.66 1011.93 1012.54 1013.20 1013.61 1013.85 1014.04
1008.88 1009.05 1009.45 1009.80 1010.10 1010.55 1010.89 1011.09 1011.51 1011.79 1011.90 1011.86 1011.83 1011.99 1012.17 1012.31 1012.78 1012.88 1013.05 1013.26 1013.41 1013.16 1013.03 1013.50 1013.81 1013.63 1013.54 1013.54 1013.85 1014.02 1014.02 1013.95 1013.60 1012.84 1012.33 1012.31 1012.02 1012.30 1013.17 1013.84 1014.22 1014.17 1014.24
Wind_Speed
3 1 2 2 3 2 3 9 7 8 11 17 8 7 13 17 10 4 4 13 13 12 13 13 13 13 11 10 10 10 10 10 9 9 9 9 8 8 9 10 10 9 10
2 3 2 4 4 9 12 8 7 7 13 10 10 13 7 6 5 6 7 8 11 12 12 12 12 12 12 11 11 11 10 9 9 8 8 8 8 8 9 10 11 11 10
3 4 4 5 5 9 10 1 8 6 13 4 5 8 12 3 5 2 5 5 7 13 14 13 13 12 12 12 12 12 11 10 9 9 9 9 9 9 10 10 10 9 8
5 4 5 4 3 1 8 5 4 4 8 8 11 6 4 4 6 4 7 6 8 7 11 13 13 12 13 13 13 13 13 12 12 11 10 10 10 10 10 9 9 8 7
7 5 4 2 2 3 3 1 4 5 3 5 4 4 2 6 16 7 2 5 10 10 7 13 14 14 16 17 14 13 13 13 12 11 11 10 10 10 9 9 9 8 7
7 5 2 6 2 6 7 4 5 4 5 5 8 4 5 10 6 9 9 6 6 8 8 8 7 8 15 16 15 14 13 13 12 12 11 11 10 9 9 9 8 8 8
5 5 3 6 1 4 5 2 3 6 7 4 5 4 4 9 6 2 7 8 5 5 11 9 7 5 7 15 13 14 14 13 12 12 12 11 10 9 9 8 7 8 8
4 6 2 5 6 4 5 6 2 3 3 4 1 4 4 7 5 6 8 7 13 6 12 4 8 9 7 7 10 14 13 13 13 12 11 11 10 10 10 9 8 8 8
6 5 2 4 4 2 4 7 5 3 2 4 3 2 3 2 3 5 7 5 4 5 9 10 3 9 9 8 10 12 13 12 13 13 12 11 10 10 10 10 9 9 9
7 7 5 5 3 3 1 5 5 5 4 4 3 4 0 5 4 1 3 2 6 11 11 8 9 6 5 8 10 13 14 12 11 12 12 12 11 11 11 10 10 10 10
8 8 7 6 4 4 5 3 7 12 5 5 4 3 4 1 2 1 2 4 5 3 5 5 7 6 5 4 6 8 15 13 12 11 11 12 13 12 12 12 11 11 10
8 9 9 6 5 5 5 2 7 16 4 4 4 5 4 5 2 1 2 4 3 3 1 2 3 7 5 4 7 15 13 12 11 11 11 11 12 13 13 13 13 12 12
7 9 9 7 6 6 6 2 8 6 2 4 3 5 4 4 3 2 3 4 3 3 4 5 5 2 4 3 7 12 12 12 12 11 10 10 11 11 12 12 12 12 12
8 5 9 9 9 7 6 5 4 2 5 4 4 4 4 5 5 4 2 2 4 3 4 3 5 11 3 7 9 11 8 13 12 12 11 10 10 10 11 11 11 11 11
5 7 14 10 8 7 7 6 5 4 5 3 3 5 3 4 6 5 5 3 3 2 2 2 6 4 3 8 10 7 6 14 14 13 13 12 12 12 12 12 11 11 11
6 6 9 11 10 8 7 7 7 6 5 4 4 5 3 4 6 4 4 4 2 2 2 3 7 1 7 3 13 14 3 12 15 16 17 16 15 14 12 12 11 11 11
7 6 10 12 11 9 10 8 9 6 2 4 4 3 3 6 6 5 4 4 4 2 1 4 2 3 6 9 11 5 4 5 7 18 18 16 15 14 14 13 12 11 12
6 8 6 6 7 9 10 8 5 7 5 6 7 6 6 6 7 6 5 6 4 4 3 5 3 4 5 7 7 7 6 5 5 7 16 14 13 13 13 13 13 12 12
8 5 8 8 9 6 5 5 7 8 8 4 6 6 9 7 6 4 3 4 4 3 3 3 7 5 5 5 4 2 4 4 4 6 9 14 17 17 16 15 14 14 13
12 10 8 9 9 8 9 9 8 10 8 7 7 8 7 7 8 6 6 5 5 6 5 5 5 4 3 2 4 3 1 7 11 7 4 10 11 14 14 14 13 13 13
12 12 11 10 10 10 9 10 10 9 8 9 9 7 8 11 10 7 5 6 6 4 4 4 7 6 6 4 4 1 4 6 8 4 1 5 15 5 5 9 9 13 13
10 9 10 10 10 9 12 13 12 10 10 11 10 7 7 8 10 14 14 14 2 5 7 4 7 7 7 6 5 3 5 5 5 5 4 5 8 6 7 8 14 13 14
11 12 12 12 12 11 11 10 12 10 9 11 9 7 8 10 8 2 5 6 6 8 10 7 7 6 7 5 3 4 4 5 5 6 3 4 3 7 2 4 9 6 9
12 11 12 12 11 10 14 13 10 7 8 8 7 6 6 6 5 4 4 5 8 8 9 7 7 6 4 3 1 3 4 7 9 7 4 8 5 5 5 6 11 4 6
11 10 10 11 11 10 10 13 8 7 8 8 8 9 10 9 6 7 4 5 5 4 4 12 11 7 6 7 5 2 3 4 6 6 5 6 6 3 2 3 4 7 2
9 9 10 11 12 10 10 13 12 8 10 9 10 12 14 15 13 11 5 4 6 6 1 5 3 4 6 7 11 7 3 5 6 6 1 4 5 3 2 2 2 2 2
Wind_Direction
214 329 314 314 216 178 318 100 227 242 36 345 295 259 157 179 201 163 155 164 160 173 183 188 194 195 202 208 207 213 215 216 219 225 227 226 226 223 225 226 236 257 260
206 185 219 257 253 81 319 275 206 166 81 300 357 306 291 142 128 141 153 160 172 175 191 202 204 204 205 202 206 212 218 215 218 221 226 225 227 228 226 235 243 250 248
211 332 252 246 252 155 202 71 307 82 136 180 217 300 295 114 125 193 88 137 170 192 187 194 203 206 209 206 208 210 214 216 218 220 221 225 228 229 228 237 241 242 244
261 238 281 263 320 266 46 32 313 278 160 176 185 224 267 228 74 152 150 182 163 193 199 198 196 205 209 213 213 210 214 215 218 223 224 228 222 227 227 227 223 225 236
252 261 302 257 80 7 122 144 305 306 307 187 222 237 189 118 147 265 309 203 187 161 172 195 202 202 207 212 214 212 213 216 219 222 219 219 222 225 222 226 220 214 218
245 234 246 283 311 58 341 133 228 314 305 301 39 339 10 41 22 61 323 321 258 156 164 179 194 210 207 211 209 211 214 216 214 212 213 216 216 213 214 216 217 221 224
228 254 274 329 273 103 258 12 334 318 308 15 50 3 12 34 58 78 219 225 292 156 164 178 188 197 201 213 215 211 214 214 207 207 208 204 202 206 204 204 209 215 223
244 254 161 273 295 71 22 322 7 304 325 325 323 88 62 356 354 288 296 267 153 71 353 241 182 196 187 190 204 208 206 204 205 210 209 201 199 197 198 203 206 210 216
235 261 258 252 308 64 136 261 254 277 306 291 5 109 120 138 213 301 271 305 148 103 205 249 197 174 188 171 188 195 200 198 201 203 202 200 199 200 204 205 207 210 212
214 235 244 264 227 300 314 249 354 325 314 331 349 19 53 178 195 228 312 245 266 180 208 182 156 207 201 149 172 181 187 191 199 202 199 199 201 203 205 210 212 211 211
199 221 222 239 231 247 262 8 54 344 304 314 357 349 257 297 239 2 288 232 294 187 195 175 190 173 177 187 149 144 164 182 193 199 200 200 201 205 210 212 211 211 213
196 211 229 219 226 245 272 75 144 215 283 317 349 329 333 333 354 277 330 340 333 293 64 100 3 151 165 159 104 142 163 178 193 200 205 207 206 207 213 215 217 217 219
199 201 212 207 212 227 259 266 202 210 200 295 349 324 339 316 323 340 351 310 344 325 13 4 17 77 123 131 140 146 177 184 193 204 210 213 215 213 216 218 219 220 222
229 155 202 215 212 204 228 250 254 209 241 225 244 266 300 310 310 280 232 336 327 346 20 348 352 1 40 123 169 176 178 188 193 197 203 209 215 218 220 221 221 221 223
232 176 197 208 214 206 212 250 243 227 243 228 240 220 251 281 293 305 300 222 172 318 353 347 204 147 59 18 319 198 185 191 195 200 199 202 208 214 217 219 220 222 223
219 195 179 203 208 215 204 206 248 223 226 232 211 246 245 299 309 302 315 327 71 227 269 168 220 216 71 76 287 264 256 169 197 202 206 201 200 205 210 213 218 221 222
199 200 189 193 202 204 212 207 232 257 284 245 282 285 279 271 284 299 333 334 351 55 331 296 327 319 154 179 235 234 217 211 211 214 211 201 198 198 202 205 210 218 222
216 197 192 194 212 205 208 197 214 262 240 197 238 242 248 237 236 265 283 289 300 298 272 273 267 269 259 240 221 216 220 255 287 229 218 199 197 200 203 202 202 211 215
210 211 186 198 210 209 230 206 200 231 256 243 234 232 242 252 247 223 274 290 298 304 301 271 274 271 272 274 300 300 303 254 278 300 220 213 199 206 205 204 201 201 203
200 212 212 204 211 203 215 226 218 227 228 235 237 240 245 237 235 224 236 251 270 271 281 285 287 296 292 354 70 60 94 322 291 285 279 238 224 208 211 204 200 198 197
191 199 209 219 212 216 218 224 221 230 233 230 243 247 239 250 230 211 208 228 232 248 257 290 289 289 292 331 333 254 233 236 265 233 222 21 274 219 230 228 226 208 198
196 200 212 215 222 222 223 227 217 228 230 233 231 232 255 269 232 224 218 224 290 241 253 262 273 281 290 296 321 319 292 288 286 191 206 220 193 211 217 203 201 185 196
196 201 204 209 216 224 229 229 221 230 226 236 235 218 242 247 240 237 207 153 200 212 223 238 249 252 282 301 28 311 318 313 280 298 320 283 289 275 90 50 73 136 177
206 207 208 209 213 215 204 210 212 229 241 248 265 257 260 275 281 264 258 212 200 220 220 224 231 247 245 99 199 258 278 286 291 284 261 273 272 259 128 105 60 97 174
206 212 213 216 221 230 206 203 184 217 232 242 247 249 246 246 168 152 178 225 258 280 257 205 220 216 214 215 214 268 272 284 292 286 270 258 254 202 71 77 52 38 20
209 210 214 216 216 226 209 198 193 219 233 237 236 238 241 241 168 177 186 222 246 243 294 2 250 238 233 236 208 205 245 273 293 294 26 345 350 107 148 54 36 24 77